START_TIME,STEP,MOV.,P11,t_acc.,P23,t_acc.,P27,t_acc.,A4,t_acc.
1979-07-30 03:00:22.170 ,1,0,1.,4.8,0.,4.8,0.,4.8,0.,4.8
1979-07-30 03:00:26.970 ,1,0,2.,4.8,0.,4.8,0.,4.8,0.,4.8
1979-07-30 03:00:31.770 ,1,0,1.,4.8,0.,4.8,1.,4.8,0.,4.8
1979-07-30 03:00:36.570 ,1,0,1.,4.8,0.,4.8,1.,4.8,0.,4.8
1979-07-30 03:00:41.370 ,1,0,1.,4.8,0.,4.8,0.,4.8,0.,4.8
1979-07-30 03:00:46.160 ,2,0,1.,4.8,0.,4.8,0.,4.8,0.,4.8
1979-07-30 03:00:50.970 ,2,0,3.,4.8,0.,4.8,0.,4.8,0.,4.8
1979-07-30 03:00:55.770 ,2,0,1.,4.8,0.,4.8,0.,4.8,0.,4.8
1979-07-30 03:01:00.570 ,2,0,1.,4.8,0.,4.8,0.,4.8,0.,4.8
1979-07-30 03:01:05.370 ,2,0,1.,4.8,0.,4.8,0.,4.8,0.,4.8
1979-07-30 03:01:10.170 ,2,0,1.,4.8,0.,4.8,0.,4.8,0.,4.8
1979-07-30 03:01:14.970 ,2,0,0.,4.8,0.,4.8,0.,4.8,0.,4.8
1979-07-30 03:01:19.770 ,2,0,1.,4.8,0.,4.8,1.,4.8,0.,4.8
1979-07-30 03:01:24.570 ,2,0,1.,4.8,0.,4.8,0.,4.8,0.,4.8
1979-07-30 03:01:29.370 ,2,0,3.,4.8,0.,4.8,1.,4.8,0.,4.8
1979-07-30 03:01:34.170 ,3,0,3.,4.8,0.,4.8,0.,4.8,0.,4.8
1979-07-30 03:01:38.970 ,3,0,1.,4.8,0.,4.8,0.,4.8,0.,4.8
1979-07-30 03:01:43.770 ,3,0,3.,4.8,0.,4.8,0.,4.8,0.,4.8
1979-07-30 03:01:48.570 ,3,0,1.,4.8,0.,4.8,0.,4.8,0.,4.8
1979-07-30 03:01:53.370 ,3,0,2.,4.8,0.,4.8,0.,4.8,0.,4.8
1979-07-30 03:01:58.170 ,3,0,3.,4.8,0.,4.8,0.,4.8,0.,4.8
1979-07-30 03:02:02.970 ,3,0,1.,4.8,0.,4.8,0.,4.8,0.,4.8
1979-07-30 03:02:07.770 ,3,0,1.,4.8,1.,4.8,0.,4.8,0.,4.8
1979-07-30 03:02:12.570 ,3,0,2.,4.8,0.,4.8,0.,4.8,0.,4.8
1979-07-30 03:02:17.370 ,3,0,1.,4.8,0.,4.8,0.,4.8,0.,4.8
1979-07-30 03:02:22.170 ,4,0,1.,4.8,0.,4.8,0.,4.8,0.,4.8
1979-07-30 03:02:26.970 ,4,0,0.,4.8,0.,4.8,0.,4.8,0.,4.8
1979-07-30 03:02:31.770 ,4,0,2.,4.8,0.,4.8,0.,4.8,0.,4.8
1979-07-30 03:02:36.570 ,4,0,1.,4.8,0.,4.8,0.,4.8,0.,4.8
1979-07-30 03:02:41.370 ,4,0,3.,4.8,0.,4.8,0.,4.8,0.,4.8
1979-07-30 03:02:46.170 ,4,0,1.,4.8,0.,4.8,0.,4.8,0.,4.8
1979-07-30 03:02:50.970 ,4,0,2.,4.8,0.,4.8,0.,4.8,0.,4.8
1979-07-30 03:02:55.760 ,4,0,2.,4.8,0.,4.8,0.,4.8,0.,4.8
1979-07-30 03:03:00.570 ,4,0,0.,4.8,0.,4.8,0.,4.8,0.,4.8
1979-07-30 03:03:05.370 ,4,0,0.,4.8,0.,4.8,0.,4.8,0.,4.8
1979-07-30 03:03:10.170 ,5,0,1.,4.8,0.,4.8,0.,4.8,0.,4.8
1979-07-30 03:03:14.970 ,5,0,2.,4.8,0.,4.8,0.,4.8,0.,4.8
1979-07-30 03:03:19.770 ,5,0,0.,4.8,0.,4.8,0.,4.8,0.,4.8
1979-07-30 03:03:24.570 ,5,0,0.,4.8,0.,4.8,0.,4.8,0.,4.8
1979-07-30 03:03:29.370 ,5,0,1.,4.8,0.,4.8,0.,4.8,0.,4.8
1979-07-30 03:03:34.170 ,5,0,2.,4.8,0.,4.8,0.,4.8,0.,4.8
1979-07-30 03:03:38.970 ,5,0,1.,4.8,0.,4.8,0.,4.8,0.,4.8
1979-07-30 03:03:43.770 ,5,0,0.,4.8,0.,4.8,0.,4.8,0.,4.8
1979-07-30 03:03:48.570 ,5,0,1.,4.8,0.,4.8,1.,4.8,0.,4.8
1979-07-30 03:03:53.370 ,5,0,2.,4.8,0.,4.8,0.,4.8,0.,4.8
1979-07-30 03:03:58.160 ,6,0,1.,4.8,0.,4.8,0.,4.8,0.,4.8
1979-07-30 03:04:02.960 ,6,0,4.,4.8,0.,4.8,0.,4.8,0.,4.8
1979-07-30 03:04:07.760 ,6,0,2.,4.8,0.,4.8,0.,4.8,0.,4.8
1979-07-30 03:04:12.570 ,6,0,1.,4.8,0.,4.8,0.,4.8,0.,4.8
1979-07-30 03:04:17.370 ,6,0,3.,4.8,0.,4.8,0.,4.8,0.,4.8
1979-07-30 03:04:22.170 ,6,0,2.,4.8,0.,4.8,0.,4.8,0.,4.8
1979-07-30 03:04:26.960 ,6,0,0.,4.8,0.,4.8,0.,4.8,0.,4.8
1979-07-30 03:04:31.770 ,6,0,2.,4.8,0.,4.8,0.,4.8,0.,4.8
1979-07-30 03:04:36.570 ,6,0,1.,4.8,0.,4.8,0.,4.8,0.,4.8
1979-07-30 03:04:41.370 ,6,0,1.,4.8,0.,4.8,0.,4.8,0.,4.8
1979-07-30 03:04:46.170 ,7,0,0.,4.8,0.,4.8,0.,4.8,0.,4.8
1979-07-30 03:04:50.960 ,7,0,2.,4.8,0.,4.8,2.,4.8,0.,4.8
1979-07-30 03:04:55.770 ,7,0,0.,4.8,0.,4.8,0.,4.8,0.,4.8
1979-07-30 03:05:00.570 ,7,0,1.,4.8,0.,4.8,0.,4.8,0.,4.8
1979-07-30 03:05:05.370 ,7,0,0.,4.8,0.,4.8,0.,4.8,0.,4.8
1979-07-30 03:05:10.170 ,7,0,0.,4.8,0.,4.8,0.,4.8,0.,4.8
1979-07-30 03:05:14.960 ,7,0,0.,4.8,0.,4.8,0.,4.8,0.,4.8
1979-07-30 03:05:19.770 ,7,0,0.,4.8,0.,4.8,1.,4.8,0.,4.8
1979-07-30 03:05:24.570 ,7,0,0.,4.8,0.,4.8,1.,4.8,0.,4.8
1979-07-30 03:05:29.370 ,7,0,2.,4.8,0.,4.8,0.,4.8,0.,4.8
1979-07-30 03:05:34.170 ,7,0,0.,4.8,0.,4.8,0.,4.8,0.,4.8
1979-07-30 03:05:38.960 ,7,0,1.,4.8,0.,4.8,1.,4.8,0.,4.8
1979-07-30 03:05:43.770 ,7,0,3.,4.8,0.,4.8,1.,4.8,0.,4.8
1979-07-30 03:05:48.570 ,7,0,1.,4.8,0.,4.8,0.,4.8,0.,4.8
1979-07-30 03:05:53.370 ,7,0,1.,4.8,0.,4.8,0.,4.8,0.,4.8
1979-07-30 03:05:58.170 ,7,0,3.,4.8,0.,4.8,0.,4.8,0.,4.8
1979-07-30 03:06:02.960 ,7,0,0.,4.8,0.,4.8,0.,4.8,0.,4.8
1979-07-30 03:06:07.770 ,7,0,2.,4.8,0.,4.8,0.,4.8,0.,4.8
1979-07-30 03:06:12.570 ,7,0,2.,4.8,0.,4.8,1.,4.8,0.,4.8
1979-07-30 03:06:17.370 ,7,0,0.,4.8,0.,4.8,0.,4.8,0.,4.8
1979-07-30 03:06:22.170 ,6,0,0.,4.8,0.,4.8,0.,4.8,0.,4.8
1979-07-30 03:06:26.960 ,6,0,0.,4.8,0.,4.8,0.,4.8,0.,4.8
1979-07-30 03:06:31.770 ,6,0,3.,4.8,0.,4.8,0.,4.8,0.,4.8
1979-07-30 03:06:36.570 ,6,0,2.,4.8,0.,4.8,0.,4.8,0.,4.8
1979-07-30 03:06:41.370 ,6,0,3.,4.8,1.,4.8,0.,4.8,0.,4.8
1979-07-30 03:06:46.170 ,6,0,0.,4.8,0.,4.8,0.,4.8,0.,4.8
1979-07-30 03:06:50.960 ,6,0,1.,4.8,0.,4.8,0.,4.8,0.,4.8
1979-07-30 03:06:55.770 ,6,0,2.,4.8,0.,4.8,0.,4.8,0.,4.8
1979-07-30 03:07:00.570 ,6,0,1.,4.8,0.,4.8,0.,4.8,0.,4.8
1979-07-30 03:07:05.370 ,6,0,4.,4.8,0.,4.8,0.,4.8,0.,4.8
1979-07-30 03:07:10.170 ,5,0,2.,4.8,0.,4.8,0.,4.8,0.,4.8
1979-07-30 03:07:14.960 ,5,0,0.,4.8,0.,4.8,1.,4.8,0.,4.8
1979-07-30 03:07:19.770 ,5,0,1.,4.8,0.,4.8,1.,4.8,0.,4.8
1979-07-30 03:07:24.570 ,5,0,0.,4.8,0.,4.8,0.,4.8,0.,4.8
1979-07-30 03:07:29.370 ,5,0,3.,4.8,0.,4.8,0.,4.8,0.,4.8
1979-07-30 03:07:34.170 ,5,0,1.,4.8,0.,4.8,0.,4.8,0.,4.8
1979-07-30 03:07:38.960 ,5,0,0.,4.8,0.,4.8,1.,4.8,0.,4.8
1979-07-30 03:07:43.770 ,5,0,1.,4.8,0.,4.8,0.,4.8,0.,4.8
1979-07-30 03:07:48.570 ,5,0,0.,4.8,0.,4.8,1.,4.8,0.,4.8
1979-07-30 03:07:53.370 ,5,0,2.,4.8,0.,4.8,0.,4.8,0.,4.8
1979-07-30 03:07:58.170 ,4,0,2.,4.8,0.,4.8,0.,4.8,1.,4.8
1979-07-30 03:08:02.960 ,4,0,4.,4.8,0.,4.8,0.,4.8,0.,4.8
1979-07-30 03:08:07.770 ,4,0,2.,4.8,0.,4.8,0.,4.8,0.,4.8
1979-07-30 03:08:12.570 ,4,0,2.,4.8,0.,4.8,0.,4.8,0.,4.8
1979-07-30 03:08:17.370 ,4,0,1.,4.8,0.,4.8,0.,4.8,0.,4.8
1979-07-30 03:08:22.170 ,4,0,0.,4.8,0.,4.8,0.,4.8,0.,4.8
1979-07-30 03:08:26.960 ,4,0,0.,4.8,0.,4.8,0.,4.8,0.,4.8
1979-07-30 03:08:31.770 ,4,0,2.,4.8,1.,4.8,1.,4.8,0.,4.8
1979-07-30 03:08:36.570 ,4,0,3.,4.8,0.,4.8,0.,4.8,0.,4.8
1979-07-30 03:08:41.360 ,4,0,2.,4.8,0.,4.8,0.,4.8,0.,4.8
1979-07-30 03:08:46.160 ,3,0,1.,4.8,0.,4.8,0.,4.8,0.,4.8
1979-07-30 03:08:50.970 ,3,0,2.,4.8,0.,4.8,0.,4.8,0.,4.8
1979-07-30 03:08:55.770 ,3,0,1.,4.8,1.,4.8,0.,4.8,0.,4.8
1979-07-30 03:09:00.570 ,3,0,3.,4.8,0.,4.8,0.,4.8,0.,4.8
1979-07-30 03:09:05.360 ,3,0,1.,4.8,0.,4.8,0.,4.8,0.,4.8
1979-07-30 03:09:10.160 ,3,0,4.,4.8,0.,4.8,0.,4.8,0.,4.8
1979-07-30 03:09:14.970 ,3,0,5.,4.8,0.,4.8,0.,4.8,0.,4.8
1979-07-30 03:09:19.770 ,3,0,0.,4.8,0.,4.8,0.,4.8,0.,4.8
1979-07-30 03:09:24.570 ,3,0,1.,4.8,0.,4.8,1.,4.8,0.,4.8
1979-07-30 03:09:29.360 ,3,0,1.,4.8,0.,4.8,0.,4.8,0.,4.8
1979-07-30 03:09:34.160 ,2,0,1.,4.8,0.,4.8,1.,4.8,0.,4.8
1979-07-30 03:09:38.970 ,2,0,1.,4.8,0.,4.8,0.,4.8,0.,4.8
1979-07-30 03:09:43.770 ,2,0,0.,4.8,0.,4.8,1.,4.8,0.,4.8
1979-07-30 03:09:48.570 ,2,0,1.,4.8,0.,4.8,0.,4.8,0.,4.8
1979-07-30 03:09:53.360 ,2,0,2.,4.8,0.,4.8,0.,4.8,0.,4.8
1979-07-30 03:09:58.160 ,2,0,1.,4.8,0.,4.8,0.,4.8,0.,4.8
1979-07-30 03:10:02.970 ,2,0,1.,4.8,0.,4.8,0.,4.8,0.,4.8
1979-07-30 03:10:07.770 ,2,0,0.,4.8,0.,4.8,0.,4.8,0.,4.8
1979-07-30 03:10:12.570 ,2,0,1.,4.8,1.,4.8,0.,4.8,0.,4.8
1979-07-30 03:10:17.360 ,2,0,1.,4.8,0.,4.8,0.,4.8,0.,4.8
1979-07-30 03:10:22.160 ,1,0,3.,4.8,0.,4.8,0.,4.8,0.,4.8
1979-07-30 03:10:26.970 ,1,0,1.,4.8,0.,4.8,0.,4.8,0.,4.8
1979-07-30 03:10:31.770 ,1,0,3.,4.8,0.,4.8,0.,4.8,0.,4.8
1979-07-30 03:10:36.570 ,1,0,2.,4.8,0.,4.8,1.,4.8,0.,4.8
1979-07-30 03:10:41.360 ,1,0,2.,4.8,0.,4.8,0.,4.8,0.,4.8
1979-07-30 03:10:46.160 ,1,0,2.,4.8,0.,4.8,0.,4.8,0.,4.8
1979-07-30 03:10:50.970 ,1,0,2.,4.8,0.,4.8,0.,4.8,0.,4.8
1979-07-30 03:10:55.770 ,1,0,1.,4.8,0.,4.8,0.,4.8,0.,4.8
1979-07-30 03:11:00.570 ,1,0,1.,4.8,0.,4.8,0.,4.8,0.,4.8
1979-07-30 03:11:05.360 ,1,0,2.,4.8,0.,4.8,0.,4.8,0.,4.8
1979-07-30 03:11:10.160 ,0,0,0.,4.8,0.,4.8,0.,4.8,0.,4.8
1979-07-30 03:11:14.970 ,0,0,2.,4.8,0.,4.8,0.,4.8,0.,4.8
1979-07-30 03:11:19.770 ,0,0,0.,4.8,0.,4.8,0.,4.8,0.,4.8
1979-07-30 03:11:24.570 ,0,0,1.,4.8,0.,4.8,0.,4.8,0.,4.8
1979-07-30 03:11:29.360 ,0,0,1.,4.8,0.,4.8,0.,4.8,0.,4.8
1979-07-30 03:11:34.160 ,0,0,5.,4.8,0.,4.8,0.,4.8,0.,4.8
1979-07-30 03:11:38.970 ,0,0,2.,4.8,0.,4.8,0.,4.8,0.,4.8
1979-07-30 03:11:43.770 ,0,0,1.,4.8,0.,4.8,0.,4.8,0.,4.8
1979-07-30 03:11:48.570 ,0,0,0.,4.8,0.,4.8,0.,4.8,0.,4.8
1979-07-30 03:11:53.360 ,0,0,1.,4.8,0.,4.8,0.,4.8,0.,4.8
1979-07-30 03:11:58.160 ,0,0,0.,4.8,0.,4.8,0.,4.8,0.,4.8
1979-07-30 03:12:02.970 ,0,0,1.,4.8,0.,4.8,0.,4.8,0.,4.8
1979-07-30 03:12:07.770 ,0,0,0.,4.8,0.,4.8,0.,4.8,0.,4.8
1979-07-30 03:12:12.570 ,0,0,3.,4.8,0.,4.8,0.,4.8,0.,4.8
1979-07-30 03:12:17.360 ,0,0,3.,4.8,0.,4.8,0.,4.8,0.,4.8
1979-07-30 03:12:22.160 ,0,0,2.,4.8,0.,4.8,0.,4.8,0.,4.8
1979-07-30 03:12:26.970 ,0,0,2.,4.8,0.,4.8,0.,4.8,0.,4.8
1979-07-30 03:12:31.770 ,0,0,0.,4.8,0.,4.8,0.,4.8,0.,4.8
1979-07-30 03:12:36.570 ,0,0,2.,4.8,0.,4.8,0.,4.8,0.,4.8
1979-07-30 03:12:41.360 ,0,0,2.,4.8,0.,4.8,0.,4.8,0.,4.8
1979-07-30 03:12:46.160 ,0,0,0.,4.8,0.,4.8,1.,4.8,0.,4.8
1979-07-30 03:12:50.970 ,0,0,0.,4.8,0.,4.8,0.,4.8,0.,4.8
1979-07-30 03:12:55.770 ,0,0,1.,4.8,0.,4.8,0.,4.8,0.,4.8
1979-07-30 03:13:00.570 ,0,0,1.,4.8,0.,4.8,0.,4.8,0.,4.8
1979-07-30 03:13:05.360 ,0,0,,0,,0,,0,,0
1979-07-30 03:13:10.160 ,0,0,0.,4.8,0.,4.8,0.,4.8,0.,4.8
1979-07-30 03:13:14.970 ,0,0,2.,4.8,0.,4.8,0.,4.8,0.,4.8
1979-07-30 03:13:19.770 ,0,0,3.,4.8,0.,4.8,0.,4.8,0.,4.8
1979-07-30 03:13:24.570 ,0,0,2.,4.8,0.,4.8,0.,4.8,0.,4.8
1979-07-30 03:13:29.360 ,0,0,2.,4.8,0.,4.8,1.,4.8,0.,4.8
1979-07-30 03:13:34.160 ,2,0,2.,4.8,1.,4.8,0.,4.8,0.,4.8
1979-07-30 03:13:38.970 ,2,0,2.,4.8,0.,4.8,0.,4.8,0.,4.8
1979-07-30 03:13:43.770 ,2,0,1.,4.8,0.,4.8,0.,4.8,0.,4.8
1979-07-30 03:13:48.570 ,2,0,3.,4.8,0.,4.8,0.,4.8,0.,4.8
1979-07-30 03:13:53.360 ,2,0,2.,4.8,0.,4.8,0.,4.8,0.,4.8
1979-07-30 03:13:58.160 ,2,0,3.,4.8,0.,4.8,0.,4.8,0.,4.8
1979-07-30 03:14:02.970 ,2,0,0.,4.8,0.,4.8,1.,4.8,0.,4.8
1979-07-30 03:14:07.770 ,2,0,2.,4.8,0.,4.8,0.,4.8,0.,4.8
1979-07-30 03:14:12.570 ,2,0,1.,4.8,0.,4.8,0.,4.8,0.,4.8
1979-07-30 03:14:17.360 ,2,0,1.,4.8,0.,4.8,0.,4.8,0.,4.8
1979-07-30 03:14:22.160 ,3,0,4.,4.8,0.,4.8,0.,4.8,0.,4.8
1979-07-30 03:14:26.960 ,3,0,0.,4.8,0.,4.8,0.,4.8,0.,4.8
1979-07-30 03:14:31.760 ,3,0,0.,4.8,0.,4.8,0.,4.8,0.,4.8
1979-07-30 03:14:36.560 ,3,0,0.,4.8,0.,4.8,0.,4.8,0.,4.8
1979-07-30 03:14:41.360 ,3,0,1.,4.8,0.,4.8,0.,4.8,0.,4.8
1979-07-30 03:14:46.160 ,3,0,5.,4.8,0.,4.8,0.,4.8,0.,4.8
1979-07-30 03:14:50.960 ,3,0,1.,4.8,0.,4.8,0.,4.8,0.,4.8
1979-07-30 03:14:55.760 ,3,0,0.,4.8,1.,4.8,0.,4.8,0.,4.8
1979-07-30 03:15:00.560 ,3,0,2.,4.8,0.,4.8,0.,4.8,0.,4.8
1979-07-30 03:15:05.360 ,3,0,2.,4.8,0.,4.8,0.,4.8,0.,4.8
1979-07-30 03:15:10.160 ,4,0,0.,4.8,0.,4.8,0.,4.8,0.,4.8
1979-07-30 03:15:14.960 ,4,0,2.,4.8,0.,4.8,0.,4.8,0.,4.8
1979-07-30 03:15:19.760 ,4,0,1.,4.8,0.,4.8,0.,4.8,0.,4.8
1979-07-30 03:15:24.560 ,4,0,1.,4.8,0.,4.8,0.,4.8,0.,4.8
1979-07-30 03:15:29.360 ,4,0,1.,4.8,0.,4.8,0.,4.8,0.,4.8
1979-07-30 03:15:34.160 ,4,0,3.,4.8,1.,4.8,0.,4.8,0.,4.8
1979-07-30 03:15:38.960 ,4,0,1.,4.8,0.,4.8,0.,4.8,0.,4.8
1979-07-30 03:15:43.760 ,4,0,2.,4.8,0.,4.8,0.,4.8,0.,4.8
1979-07-30 03:15:48.560 ,4,0,2.,4.8,0.,4.8,0.,4.8,0.,4.8
1979-07-30 03:15:53.360 ,4,0,2.,4.8,0.,4.8,0.,4.8,0.,4.8
1979-07-30 03:15:58.160 ,5,0,2.,4.8,0.,4.8,0.,4.8,0.,4.8
1979-07-30 03:16:02.960 ,5,0,1.,4.8,0.,4.8,0.,4.8,0.,4.8
1979-07-30 03:16:07.760 ,5,0,1.,4.8,0.,4.8,0.,4.8,0.,4.8
1979-07-30 03:16:12.560 ,5,0,1.,4.8,0.,4.8,0.,4.8,0.,4.8
1979-07-30 03:16:17.360 ,5,0,2.,4.8,0.,4.8,0.,4.8,0.,4.8
1979-07-30 03:16:22.160 ,5,0,3.,4.8,0.,4.8,0.,4.8,0.,4.8
1979-07-30 03:16:26.960 ,5,0,1.,4.8,0.,4.8,0.,4.8,0.,4.8
1979-07-30 03:16:31.760 ,5,0,0.,4.8,0.,4.8,0.,4.8,0.,4.8
1979-07-30 03:16:36.560 ,5,0,1.,4.8,0.,4.8,0.,4.8,0.,4.8
1979-07-30 03:16:41.360 ,5,0,3.,4.8,0.,4.8,0.,4.8,0.,4.8
1979-07-30 03:16:46.160 ,6,0,2.,4.8,0.,4.8,0.,4.8,0.,4.8
1979-07-30 03:16:50.960 ,6,0,1.,4.8,0.,4.8,1.,4.8,0.,4.8
1979-07-30 03:16:55.760 ,6,0,1.,4.8,0.,4.8,0.,4.8,0.,4.8
1979-07-30 03:17:00.560 ,6,0,0.,4.8,0.,4.8,1.,4.8,0.,4.8
1979-07-30 03:17:05.360 ,6,0,1.,4.8,1.,4.8,0.,4.8,0.,4.8
1979-07-30 03:17:10.160 ,6,0,2.,4.8,0.,4.8,0.,4.8,0.,4.8
1979-07-30 03:17:14.960 ,6,0,3.,4.8,0.,4.8,0.,4.8,0.,4.8
1979-07-30 03:17:19.760 ,6,0,1.,4.8,0.,4.8,0.,4.8,0.,4.8
1979-07-30 03:17:24.560 ,6,0,0.,4.8,1.,4.8,0.,4.8,0.,4.8
1979-07-30 03:17:29.360 ,6,0,2.,4.8,0.,4.8,0.,4.8,0.,4.8
1979-07-30 03:17:34.160 ,7,0,2.,4.8,0.,4.8,0.,4.8,0.,4.8
1979-07-30 03:17:38.960 ,7,0,0.,4.8,0.,4.8,0.,4.8,0.,4.8
1979-07-30 03:17:43.760 ,7,0,0.,4.8,0.,4.8,0.,4.8,0.,4.8
1979-07-30 03:17:48.560 ,7,0,1.,4.8,0.,4.8,0.,4.8,0.,4.8
1979-07-30 03:17:53.360 ,7,0,2.,4.8,0.,4.8,0.,4.8,0.,4.8
1979-07-30 03:17:58.160 ,7,0,1.,4.8,0.,4.8,0.,4.8,0.,4.8
1979-07-30 03:18:02.960 ,7,0,3.,4.8,0.,4.8,1.,4.8,0.,4.8
1979-07-30 03:18:07.760 ,7,0,2.,4.8,0.,4.8,0.,4.8,0.,4.8
1979-07-30 03:18:12.560 ,7,0,1.,4.8,0.,4.8,0.,4.8,0.,4.8
1979-07-30 03:18:17.360 ,7,0,2.,4.8,0.,4.8,0.,4.8,0.,4.8
1979-07-30 03:18:22.160 ,7,0,4.,4.8,0.,4.8,0.,4.8,0.,4.8
1979-07-30 03:18:26.960 ,7,0,0.,4.8,0.,4.8,0.,4.8,0.,4.8
1979-07-30 03:18:31.760 ,7,0,0.,4.8,0.,4.8,0.,4.8,0.,4.8
1979-07-30 03:18:36.560 ,7,0,2.,4.8,0.,4.8,0.,4.8,0.,4.8
1979-07-30 03:18:41.360 ,7,0,0.,4.8,0.,4.8,0.,4.8,0.,4.8
1979-07-30 03:18:46.160 ,7,0,1.,4.8,0.,4.8,0.,4.8,0.,4.8
1979-07-30 03:18:50.960 ,7,0,1.,4.8,0.,4.8,0.,4.8,0.,4.8
1979-07-30 03:18:55.760 ,7,0,0.,4.8,0.,4.8,0.,4.8,0.,4.8
1979-07-30 03:19:00.560 ,7,0,1.,4.8,0.,4.8,0.,4.8,0.,4.8
1979-07-30 03:19:05.360 ,7,0,1.,4.8,0.,4.8,0.,4.8,0.,4.8
1979-07-30 03:19:10.160 ,6,0,2.,4.8,0.,4.8,0.,4.8,0.,4.8
1979-07-30 03:19:14.960 ,6,0,0.,4.8,0.,4.8,0.,4.8,0.,4.8
1979-07-30 03:19:19.760 ,6,0,2.,4.8,0.,4.8,1.,4.8,0.,4.8
1979-07-30 03:19:24.560 ,6,0,5.,4.8,0.,4.8,2.,4.8,0.,4.8
1979-07-30 03:19:29.360 ,6,0,1.,4.8,0.,4.8,0.,4.8,0.,4.8
1979-07-30 03:19:34.160 ,6,0,1.,4.8,0.,4.8,0.,4.8,0.,4.8
1979-07-30 03:19:38.960 ,6,0,2.,4.8,0.,4.8,0.,4.8,0.,4.8
1979-07-30 03:19:43.760 ,6,0,0.,4.8,0.,4.8,1.,4.8,0.,4.8
1979-07-30 03:19:48.560 ,6,0,5.,4.8,0.,4.8,0.,4.8,0.,4.8
1979-07-30 03:19:53.360 ,6,0,4.,4.8,0.,4.8,0.,4.8,0.,4.8
1979-07-30 03:19:58.160 ,5,0,2.,4.8,0.,4.8,0.,4.8,0.,4.8
1979-07-30 03:20:02.960 ,5,0,0.,4.8,0.,4.8,0.,4.8,0.,4.8
1979-07-30 03:20:07.760 ,5,0,2.,4.8,0.,4.8,0.,4.8,0.,4.8
1979-07-30 03:20:12.560 ,5,0,4.,4.8,0.,4.8,0.,4.8,0.,4.8
1979-07-30 03:20:17.360 ,5,0,4.,4.8,0.,4.8,0.,4.8,0.,4.8
1979-07-30 03:20:22.160 ,5,0,0.,4.8,0.,4.8,0.,4.8,0.,4.8
1979-07-30 03:20:26.960 ,5,0,2.,4.8,0.,4.8,0.,4.8,0.,4.8
1979-07-30 03:20:31.760 ,5,0,0.,4.8,0.,4.8,0.,4.8,0.,4.8
1979-07-30 03:20:36.560 ,5,0,2.,4.8,0.,4.8,0.,4.8,0.,4.8
1979-07-30 03:20:41.360 ,5,0,0.,4.8,0.,4.8,0.,4.8,0.,4.8
1979-07-30 03:20:46.160 ,4,0,1.,4.8,0.,4.8,0.,4.8,0.,4.8
1979-07-30 03:20:50.960 ,4,0,0.,4.8,0.,4.8,0.,4.8,0.,4.8
1979-07-30 03:20:55.760 ,4,0,1.,4.8,0.,4.8,0.,4.8,0.,4.8
1979-07-30 03:21:00.560 ,4,0,0.,4.8,0.,4.8,0.,4.8,0.,4.8
1979-07-30 03:21:05.360 ,4,0,2.,4.8,0.,4.8,0.,4.8,0.,4.8
1979-07-30 03:21:10.160 ,4,0,0.,4.8,0.,4.8,0.,4.8,0.,4.8
1979-07-30 03:21:14.960 ,4,0,1.,4.8,0.,4.8,0.,4.8,0.,4.8
1979-07-30 03:21:19.760 ,4,0,2.,4.8,0.,4.8,0.,4.8,0.,4.8
1979-07-30 03:21:24.560 ,4,0,2.,4.8,0.,4.8,0.,4.8,0.,4.8
1979-07-30 03:21:29.360 ,4,0,1.,4.8,0.,4.8,1.,4.8,0.,4.8
1979-07-30 03:21:34.160 ,3,0,2.,4.8,0.,4.8,0.,4.8,0.,4.8
1979-07-30 03:21:38.960 ,3,0,0.,4.8,0.,4.8,0.,4.8,0.,4.8
1979-07-30 03:21:43.760 ,3,0,0.,4.8,0.,4.8,0.,4.8,0.,4.8
1979-07-30 03:21:48.560 ,3,0,1.,4.8,0.,4.8,0.,4.8,0.,4.8
1979-07-30 03:21:53.360 ,3,0,1.,4.8,0.,4.8,0.,4.8,0.,4.8
1979-07-30 03:21:58.160 ,3,0,1.,4.8,1.,4.8,0.,4.8,0.,4.8
1979-07-30 03:22:02.960 ,3,0,1.,4.8,0.,4.8,0.,4.8,0.,4.8
1979-07-30 03:22:07.760 ,3,0,1.,4.8,0.,4.8,0.,4.8,0.,4.8
1979-07-30 03:22:12.560 ,3,0,0.,4.8,0.,4.8,0.,4.8,0.,4.8
1979-07-30 03:22:17.360 ,3,0,1.,4.8,0.,4.8,0.,4.8,0.,4.8
1979-07-30 03:22:22.160 ,2,0,0.,4.8,0.,4.8,0.,4.8,0.,4.8
1979-07-30 03:22:26.960 ,2,0,2.,4.8,0.,4.8,0.,4.8,0.,4.8
1979-07-30 03:22:31.760 ,2,0,0.,4.8,0.,4.8,0.,4.8,0.,4.8
1979-07-30 03:22:36.560 ,2,0,3.,4.8,0.,4.8,1.,4.8,0.,4.8
1979-07-30 03:22:41.360 ,2,0,2.,4.8,0.,4.8,0.,4.8,0.,4.8
1979-07-30 03:22:46.160 ,2,0,0.,4.8,0.,4.8,0.,4.8,1.,4.8
1979-07-30 03:22:50.960 ,2,0,1.,4.8,0.,4.8,0.,4.8,0.,4.8
1979-07-30 03:22:55.760 ,2,0,1.,4.8,0.,4.8,0.,4.8,0.,4.8
1979-07-30 03:23:00.560 ,2,0,0.,4.8,0.,4.8,0.,4.8,0.,4.8
1979-07-30 03:23:05.360 ,2,0,0.,4.8,0.,4.8,0.,4.8,0.,4.8
1979-07-30 03:23:10.160 ,0,0,2.,4.8,0.,4.8,0.,4.8,0.,4.8
1979-07-30 03:23:14.960 ,0,0,1.,4.8,0.,4.8,0.,4.8,0.,4.8
1979-07-30 03:23:19.760 ,0,0,0.,4.8,0.,4.8,0.,4.8,0.,4.8
1979-07-30 03:23:24.560 ,0,0,1.,4.8,0.,4.8,0.,4.8,0.,4.8
1979-07-30 03:23:29.360 ,0,0,0.,4.8,0.,4.8,0.,4.8,0.,4.8
1979-07-30 03:23:34.160 ,0,0,1.,4.8,0.,4.8,0.,4.8,0.,4.8
1979-07-30 03:23:38.960 ,0,0,3.,4.8,0.,4.8,0.,4.8,0.,4.8
1979-07-30 03:23:43.760 ,0,0,1.,4.8,0.,4.8,0.,4.8,0.,4.8
1979-07-30 03:23:48.560 ,0,0,0.,4.8,0.,4.8,0.,4.8,0.,4.8
1979-07-30 03:23:53.360 ,0,0,0.,4.8,0.,4.8,0.,4.8,0.,4.8
1979-07-30 03:23:58.160 ,0,0,0.,4.8,0.,4.8,0.,4.8,0.,4.8
1979-07-30 03:24:02.960 ,0,0,2.,4.8,0.,4.8,0.,4.8,0.,4.8
1979-07-30 03:24:07.760 ,0,0,0.,4.8,0.,4.8,0.,4.8,0.,4.8
1979-07-30 03:24:12.560 ,0,0,2.,4.8,0.,4.8,0.,4.8,0.,4.8
1979-07-30 03:24:17.360 ,0,0,3.,4.8,1.,4.8,0.,4.8,0.,4.8
1979-07-30 03:24:22.160 ,0,0,3.,4.8,0.,4.8,0.,4.8,0.,4.8
1979-07-30 03:24:26.960 ,0,0,0.,4.8,0.,4.8,0.,4.8,0.,4.8
1979-07-30 03:24:31.760 ,0,0,3.,4.8,0.,4.8,0.,4.8,0.,4.8
1979-07-30 03:24:36.560 ,0,0,2.,4.8,0.,4.8,0.,4.8,0.,4.8
1979-07-30 03:24:41.360 ,0,0,1.,4.8,0.,4.8,0.,4.8,0.,4.8
1979-07-30 03:24:46.160 ,0,0,4.,4.8,0.,4.8,0.,4.8,0.,4.8
1979-07-30 03:24:50.960 ,0,0,1.,4.8,0.,4.8,0.,4.8,0.,4.8
1979-07-30 03:24:55.760 ,0,0,1.,4.8,0.,4.8,0.,4.8,0.,4.8
1979-07-30 03:25:00.560 ,0,0,5.,4.8,0.,4.8,0.,4.8,0.,4.8
1979-07-30 03:25:05.360 ,0,0,1.,4.8,0.,4.8,0.,4.8,0.,4.8
1979-07-30 03:25:10.160 ,0,0,1.,4.8,0.,4.8,0.,4.8,0.,4.8
1979-07-30 03:25:14.960 ,0,0,1.,4.8,0.,4.8,0.,4.8,0.,4.8
1979-07-30 03:25:19.760 ,0,0,4.,4.8,0.,4.8,0.,4.8,0.,4.8
1979-07-30 03:25:24.560 ,0,0,2.,4.8,0.,4.8,0.,4.8,0.,4.8
1979-07-30 03:25:29.360 ,0,0,3.,4.8,0.,4.8,0.,4.8,0.,4.8
1979-07-30 03:25:34.160 ,1,0,1.,4.8,0.,4.8,1.,4.8,0.,4.8
1979-07-30 03:25:38.960 ,1,0,1.,4.8,0.,4.8,0.,4.8,0.,4.8
1979-07-30 03:25:43.760 ,1,0,1.,4.8,0.,4.8,0.,4.8,0.,4.8
1979-07-30 03:25:48.560 ,1,0,1.,4.8,0.,4.8,0.,4.8,0.,4.8
1979-07-30 03:25:53.360 ,1,0,1.,4.8,0.,4.8,0.,4.8,0.,4.8
1979-07-30 03:25:58.160 ,1,0,0.,4.8,0.,4.8,0.,4.8,0.,4.8
1979-07-30 03:26:02.960 ,1,0,4.,4.8,0.,4.8,0.,4.8,0.,4.8
1979-07-30 03:26:07.760 ,1,0,0.,4.8,0.,4.8,1.,4.8,0.,4.8
1979-07-30 03:26:12.560 ,1,0,2.,4.8,0.,4.8,0.,4.8,0.,4.8
1979-07-30 03:26:17.360 ,1,0,1.,4.8,0.,4.8,0.,4.8,0.,4.8
1979-07-30 03:26:22.160 ,2,0,1.,4.8,0.,4.8,0.,4.8,0.,4.8
1979-07-30 03:26:26.960 ,2,0,0.,4.8,0.,4.8,0.,4.8,0.,4.8
1979-07-30 03:26:31.760 ,2,0,1.,4.8,0.,4.8,0.,4.8,0.,4.8
1979-07-30 03:26:36.560 ,2,0,1.,4.8,0.,4.8,0.,4.8,0.,4.8
1979-07-30 03:26:41.360 ,2,0,2.,4.8,0.,4.8,0.,4.8,0.,4.8
1979-07-30 03:26:46.160 ,2,0,2.,4.8,0.,4.8,0.,4.8,0.,4.8
1979-07-30 03:26:50.960 ,2,0,2.,4.8,0.,4.8,1.,4.8,0.,4.8
1979-07-30 03:26:55.760 ,2,0,1.,4.8,0.,4.8,0.,4.8,0.,4.8
1979-07-30 03:27:00.560 ,2,0,0.,4.8,0.,4.8,0.,4.8,0.,4.8
1979-07-30 03:27:05.360 ,2,0,0.,4.8,0.,4.8,0.,4.8,0.,4.8
1979-07-30 03:27:10.160 ,3,0,1.,4.8,0.,4.8,0.,4.8,0.,4.8
1979-07-30 03:27:14.960 ,3,0,0.,4.8,0.,4.8,0.,4.8,0.,4.8
1979-07-30 03:27:19.760 ,3,0,2.,4.8,0.,4.8,0.,4.8,0.,4.8
1979-07-30 03:27:24.560 ,3,0,0.,4.8,0.,4.8,0.,4.8,0.,4.8
1979-07-30 03:27:29.360 ,3,0,2.,4.8,0.,4.8,0.,4.8,0.,4.8
1979-07-30 03:27:34.160 ,3,0,2.,4.8,0.,4.8,0.,4.8,0.,4.8
1979-07-30 03:27:38.960 ,3,0,2.,4.8,0.,4.8,0.,4.8,0.,4.8
1979-07-30 03:27:43.760 ,3,0,1.,4.8,0.,4.8,0.,4.8,0.,4.8
1979-07-30 03:27:48.560 ,3,0,2.,4.8,0.,4.8,0.,4.8,0.,4.8
1979-07-30 03:27:53.360 ,3,0,2.,4.8,0.,4.8,0.,4.8,0.,4.8
1979-07-30 03:27:58.160 ,4,0,0.,4.8,0.,4.8,0.,4.8,0.,4.8
1979-07-30 03:28:02.960 ,4,0,1.,4.8,0.,4.8,0.,4.8,0.,4.8
1979-07-30 03:28:07.760 ,4,0,1.,4.8,0.,4.8,0.,4.8,0.,4.8
1979-07-30 03:28:12.560 ,4,0,3.,4.8,0.,4.8,0.,4.8,0.,4.8
1979-07-30 03:28:17.360 ,4,0,1.,4.8,0.,4.8,0.,4.8,0.,4.8
1979-07-30 03:28:22.160 ,4,0,1.,4.8,0.,4.8,0.,4.8,0.,4.8
1979-07-30 03:28:26.960 ,4,0,1.,4.8,0.,4.8,0.,4.8,0.,4.8
1979-07-30 03:28:31.760 ,4,0,0.,4.8,0.,4.8,0.,4.8,0.,4.8
1979-07-30 03:28:36.560 ,4,0,3.,4.8,0.,4.8,1.,4.8,0.,4.8
1979-07-30 03:28:41.360 ,4,0,0.,4.8,0.,4.8,0.,4.8,0.,4.8
1979-07-30 03:28:46.160 ,5,0,0.,4.8,0.,4.8,0.,4.8,0.,4.8
1979-07-30 03:28:50.960 ,5,0,3.,4.8,0.,4.8,0.,4.8,0.,4.8
1979-07-30 03:28:55.760 ,5,0,3.,4.8,0.,4.8,0.,4.8,0.,4.8
1979-07-30 03:29:00.560 ,5,0,3.,4.8,0.,4.8,0.,4.8,0.,4.8
1979-07-30 03:29:05.360 ,5,0,4.,4.8,0.,4.8,0.,4.8,0.,4.8
1979-07-30 03:29:10.160 ,5,0,1.,4.8,0.,4.8,0.,4.8,1.,4.8
1979-07-30 03:29:14.960 ,5,0,2.,4.8,0.,4.8,0.,4.8,0.,4.8
1979-07-30 03:29:19.760 ,5,0,1.,4.8,0.,4.8,0.,4.8,0.,4.8
1979-07-30 03:29:24.560 ,5,0,3.,4.8,0.,4.8,0.,4.8,0.,4.8
1979-07-30 03:29:29.360 ,5,0,2.,4.8,0.,4.8,0.,4.8,0.,4.8
1979-07-30 03:29:34.160 ,6,0,5.,4.8,0.,4.8,0.,4.8,0.,4.8
1979-07-30 03:29:38.960 ,6,0,2.,4.8,0.,4.8,0.,4.8,0.,4.8
1979-07-30 03:29:43.760 ,6,0,4.,4.8,0.,4.8,0.,4.8,0.,4.8
1979-07-30 03:29:48.560 ,6,0,2.,4.8,0.,4.8,0.,4.8,0.,4.8
1979-07-30 03:29:53.360 ,6,0,1.,4.8,0.,4.8,0.,4.8,0.,4.8
1979-07-30 03:29:58.160 ,6,0,2.,4.8,0.,4.8,0.,4.8,0.,4.8
1979-07-30 03:30:02.960 ,6,0,1.,4.8,0.,4.8,0.,4.8,0.,4.8
1979-07-30 03:30:07.760 ,6,0,3.,4.8,0.,4.8,0.,4.8,0.,4.8
1979-07-30 03:30:12.560 ,6,0,0.,4.8,0.,4.8,0.,4.8,0.,4.8
1979-07-30 03:30:17.360 ,6,0,1.,4.8,0.,4.8,1.,4.8,0.,4.8
1979-07-30 03:30:22.160 ,7,0,4.,4.8,0.,4.8,0.,4.8,0.,4.8
1979-07-30 03:30:26.960 ,7,0,2.,4.8,0.,4.8,0.,4.8,0.,4.8
1979-07-30 03:30:31.760 ,7,0,0.,4.8,1.,4.8,0.,4.8,0.,4.8
1979-07-30 03:30:36.560 ,7,0,0.,4.8,0.,4.8,0.,4.8,0.,4.8
1979-07-30 03:30:41.360 ,7,0,0.,4.8,0.,4.8,0.,4.8,0.,4.8
1979-07-30 03:30:46.160 ,7,0,0.,4.8,0.,4.8,0.,4.8,0.,4.8
1979-07-30 03:30:50.960 ,7,0,2.,4.8,0.,4.8,0.,4.8,0.,4.8
1979-07-30 03:30:55.760 ,7,0,2.,4.8,0.,4.8,0.,4.8,0.,4.8
1979-07-30 03:31:00.560 ,7,0,0.,4.8,0.,4.8,0.,4.8,0.,4.8
1979-07-30 03:31:05.360 ,7,0,1.,4.8,0.,4.8,0.,4.8,0.,4.8
1979-07-30 03:31:10.160 ,3,1,1.,4.8,0.,4.8,0.,4.8,0.,4.8
1979-07-30 03:31:14.960 ,3,1,2.,4.8,0.,4.8,1.,4.8,0.,4.8
1979-07-30 03:31:19.760 ,3,1,1.,4.8,0.,4.8,0.,4.8,0.,4.8
1979-07-30 03:31:24.560 ,3,1,0.,4.8,0.,4.8,0.,4.8,0.,4.8
1979-07-30 03:31:29.360 ,3,1,3.,4.8,0.,4.8,0.,4.8,0.,4.8
1979-07-30 03:31:34.160 ,0,1,4.,4.8,0.,4.8,0.,4.8,0.,4.8
1979-07-30 03:31:38.960 ,0,1,1.,4.8,0.,4.8,0.,4.8,0.,4.8
1979-07-30 03:31:43.760 ,0,1,1.,4.8,0.,4.8,0.,4.8,0.,4.8
1979-07-30 03:31:48.560 ,0,1,1.,4.8,0.,4.8,0.,4.8,0.,4.8
1979-07-30 03:31:53.360 ,0,1,1.,4.8,0.,4.8,0.,4.8,0.,4.8
1979-07-30 03:31:58.160 ,4,1,2.,4.8,0.,4.8,0.,4.8,0.,4.8
1979-07-30 03:32:02.960 ,4,1,0.,4.8,0.,4.8,0.,4.8,0.,4.8
1979-07-30 03:32:07.760 ,4,1,3.,4.8,0.,4.8,0.,4.8,0.,4.8
1979-07-30 03:32:12.560 ,4,1,1.,4.8,0.,4.8,0.,4.8,0.,4.8
1979-07-30 03:32:17.360 ,4,1,3.,4.8,1.,4.8,0.,4.8,0.,4.8
1979-07-30 03:32:22.160 ,7,1,0.,4.8,0.,4.8,0.,4.8,0.,4.8
1979-07-30 03:32:26.960 ,7,1,2.,4.8,0.,4.8,0.,4.8,0.,4.8
1979-07-30 03:32:31.760 ,7,1,0.,4.8,0.,4.8,0.,4.8,0.,4.8
1979-07-30 03:32:36.560 ,7,1,1.,4.8,0.,4.8,0.,4.8,0.,4.8
1979-07-30 03:32:41.360 ,7,1,0.,4.8,0.,4.8,0.,4.8,0.,4.8
1979-07-30 03:32:46.160 ,3,1,3.,4.8,0.,4.8,0.,4.8,0.,4.8
1979-07-30 03:32:50.960 ,3,1,0.,4.8,0.,4.8,0.,4.8,0.,4.8
1979-07-30 03:32:55.760 ,3,1,1.,4.8,0.,4.8,0.,4.8,0.,4.8
1979-07-30 03:33:00.560 ,3,1,0.,4.8,0.,4.8,0.,4.8,0.,4.8
1979-07-30 03:33:05.360 ,3,1,2.,4.8,1.,4.8,0.,4.8,0.,4.8
1979-07-30 03:33:10.160 ,0,1,0.,4.8,0.,4.8,0.,4.8,0.,4.8
1979-07-30 03:33:14.960 ,0,1,1.,4.8,0.,4.8,0.,4.8,0.,4.8